Regional Weather Roundup
Issued by NWS Charleston, SC

Current Version | Previous Version | Graphics & Text | Print | Product List | Glossary On
Versions: 1 2 3 4 5 6 7 8 9 10 11 12 13 14 15 16 17 18 19 20 21 22 23 24 25 26 27 28 29 30 31 32 33 34 35 36 37 38 39 40 41 42 43 44 45 46 47 48 49 50
000
ASUS42 KCHS 281612
RWRCHS

REGIONAL WEATHER ROUNDUP
NATIONAL WEATHER SERVICE CHARLESTON SC
1200 PM EDT SUN MAY 28 2017

NOTE: "FAIR" INDICATES FEW OR NO CLOUDS BELOW 12,000 FEET WITH NO
SIGNIFICANT WEATHER AND/OR OBSTRUCTIONS TO VISIBILITY.

NOT ALL STATIONS ARE QUALITY CONTROLLED. USE DATA WITH CAUTION...
ESPECIALLY DEWPOINT OBSERVATIONS.

SCZ027-030-031-034>040-042>050-281700-
...SOUTHEAST SOUTH CAROLINA...

CITY           SKY/WX    TMP DP  RH WIND       PRES   REMARKS
N CHARLESTON   CLOUDY    85  70  60 SW14      29.92F
WATERFRONT PRK   N/A     84  71  65 W7        29.92F
JOHNS ISLAND   PTSUNNY   84  72  65 W9        29.94S
PINOPOLIS        N/A     82  72  69 SW7       29.83F
MONCKS CORNER  FAIR      84  66  54 SW8G16    29.91F
SUMMERVILLE    FAIR      82  70  65 SW6       29.93F
BEAUFORT MCAS  PTSUNNY   86  72  62 SW13      29.95F HX  92
BEAUFORT ARPT  FAIR      86  70  58 W12G17    29.96S HX  90
HILTON HEAD IS SUNNY     86  70  58 W12       29.97S HX  90
WALTERBORO     CLOUDY    86  70  58 SW13G20   29.94S HX  90
ALLENDALE      FAIR      84  72  65 W9G17     29.93S

...SOUTHERN MIDLANDS AND PEE DEE...

CITY           SKY/WX    TMP DP  RH WIND       PRES   REMARKS
GEORGETOWN     FAIR      86  68  54 W8G18     29.91F
KINGSTREE      FAIR      86  64  48 W10       29.89R
ORANGEBURG     CLOUDY    82  70  66 SW8       29.92R
BARNWELL       FAIR      86  72  62 W13       29.94R HX  92
AIKEN          FAIR      82  64  54 SW15G22   29.97R
MANNING        FAIR      86  70  58 SW16      29.90R HX  90
COLUMBIA       PTSUNNY   86  63  45 SW17G24   29.89S
SUMTER         CLOUDY    85  65  51 SW12      29.87R
FLORENCE       SUNNY     87  66  49 SW8       29.87F
MYRTLE BEACH   SUNNY     88  72  58 W12       29.91F HX  94
N MYRTLE BEACH MOSUNNY   88  70  55 SW14      29.89F HX  93

$$

GAZ063-065-086>088-099>101-113>116-118-119-134>141-150-281700-
...SOUTHEAST GEORGIA...

CITY           SKY/WX    TMP DP  RH WIND       PRES   REMARKS
SAVANNAH ARPT  PTSUNNY   90  69  50 W10       29.97F HX  94
HUNTER AAF     MOSUNNY   88  76  65 W14       29.94F HX  99
FORT STEWART   MOSUNNY   87  70  55 W15G21    29.96F HX  92
STATESBORO     MOSUNNY   83  73  69 W12G17    29.97S
SYLVANIA       CLOUDY    83  74  74 W5        29.98R HX  91
CLAXTON        FAIR      86  77  74 W14       29.97F HX  97

...CSRA...CENTRAL AND FAR SOUTHEAST GEORGIA...

CITY           SKY/WX    TMP DP  RH WIND       PRES   REMARKS
THOMSON        CLOUDY    83  68  59 NW9G17    29.99F
AUGUSTA-BUSH   CLOUDY    87  69  54 W12G17    29.94R HX  91
AUGUSTA-DANIEL CLOUDY    84  64  50 SW8G18    29.95R
SWAINSBORO     PTSUNNY   79  72  78 SW9       30.00R
VIDALIA        CLOUDY    82  72  69 W9G16     30.01R
EASTMAN        FAIR      83  63  50 W7G16     30.04R
HAZLEHURST     PTSUNNY   84  75  73 NW3       30.00S HX  92
ALMA           MOSUNNY   85  71  63 SW9       30.01F HX  90
WAYCROSS       PTSUNNY   87  77  70 W13       30.02S HX  99
JESUP          PTSUNNY   86  68  54 W8G17     30.00S
BAXLEY         FAIR      86  77  74 W12       30.00S HX  97
BRUNSWICK      MOSUNNY   88  73  62 W10G18    30.01S HX  96
SAINT SIMONS   SUNNY     87  71  58 W9G20     30.00S HX  93

$$

SCZ027-028-034-036>038-045-046-048>050-GAZ119-141-281700-
...LAKE AND SUPPLEMENTAL COASTAL OBSERVATIONS...

STATION/POSITION TIME  TEMP    WIND        PRES    WAVE   SWELL
                       AIR SEA DIR/SP/G            HT/PER HT/PER/DIR
                 (UTC) (F)     (DEG/KT/KT) (MB)    (FT/S) (FT/S/D)
WINYAH BAY       1445   83     270/ 12     1013.0
LAKE MURRAY      1520   77     220/  7/ 10 1011.9
ACE BASIN NERRS  1445   82     250/  4     1015.0
FORT PULASKI     1548   85     270/  8/ 12 1015.0F
SAPELO ISLAND    1500   84     270/ 11     1016.0

$$

ANZ835-935-AMZ111-154-330-350-352-354-370-450-454-472-281700-
...C-MAN AND BUOY OBSERVATIONS...

STATION/POSITION TIME  TEMP    WIND        PRES    WAVE   SWELL
                       AIR SEA DIR/SP/G            HT/PER HT/PER/DIR
                 (UTC) (F)     (DEG/KT/KT) (MB)    (FT/S) (FT/S/D)
BUOY 41004       1550   77 75  230/ 10/ 12 1014.4R   3/ 5   2/130/ 7
BUOY 41008       1550   79 78  230/  8/  8 1015.7R   2/ 4   2/100/ 9
FOLLY BEACH CMAN 1500   83     250/ 11/ 14 1014.9R
CAPERS NEARSHORE 1508   84 77  260/ 10/ 16 1013.8S
FRIPP NEARSHORE  1508   80 78  260/  8/ 12 1014.8R


STATION/POSITION TIME  TEMP    WIND        PRES    WAVE   SWELL
                       AIR SEA DIR/SP/G            HT/PER HT/PER/DIR
                 (UTC) (F)     (DEG/KT/KT) (MB)    (FT/S) (FT/S/D)
5E ST. MARYS GA  1530      79                N/A     1/ 7
FRYING PAN BUOY  1550   76 75  240/ 16/ 19 1013.6R   3/ 5   2/150/ 8
BUOY 41025       1550   76 77  220/ 12/ 14 1012.0R   3/ 6   2/220/ 6
CAPE LOOKOUT NC  1500   78     240/ 10/ 13 1011.9R
BUOY 41002       1550   77 77  230/ 16/ 19 1015.9R   4/ 5   2/110/ 8
BUOY 41010       1550   81 80  210/  8/ 10 1016.8S   2/ 5   2/150/ 5
ST AUGUSTINE FL  1600   84 76  270/  6/ 10 1017.9R


$$




USA.gov is the U.S. government's official web portal to all federal, state and local government web resources and services.